Tracking 19245 objects as of 17-Aug-2018
HD Live streaming from Space Station
objects crossing your sky now

FENGYUN 1C DEB

Track FENGYUN 1C DEB now!
10-day predictions


NORAD ID: 35147
Int'l Code: 1999-025DMB
Perigee: 735.0 km
Apogee: 813.3 km
Inclination: 99.5 °
Period: 100.2 minutes
Semi major axis: 7145 km
RCS: 0.0009 m2 (small)
Launch date: May 10, 1999
Source: People's Republic of China (PRC)
Launch site: Taiyaun Space Center, China (TSC)

Note: This is SATELLITE DEBRIS
aabbcc
Your satellite tracking list
Your tracking list is empty




NASA's NSSDC Master Catalog

Two Line Element Set (TLE):
1 35147U 99025DMB 18227.00199643  .00000658  00000-0  23333-3 0  9993
2 35147  99.4979 304.1166 0054796 120.6761 239.9839 14.37423814551184
Source of the keplerian elements: AFSPC